Temperature
15 15 15 15 15 15 15 15 15 15 15 15 16 16 16 15 15 15 15 16 16 16 16 16 16 16 16 17 16 17 17 17 17 17 17 17 17 17 17 17 17 17 18
15 15 15 15 15 15 15 15 15 15 15 15 15 15 15 15 15 15 15 15 16 16 16 16 16 16 16 16 16 16 17 17 17 17 17 17 17 17 17 17 17 18 17
15 15 15 15 15 15 15 15 15 15 15 15 15 15 15 15 15 15 15 15 15 15 16 16 16 16 16 16 16 16 16 16 17 17 17 17 17 17 17 17 17 17 17
15 15 15 15 15 15 15 15 15 15 15 15 15 15 15 15 15 15 15 15 15 15 15 15 16 16 16 16 16 16 16 16 17 17 17 17 17 17 17 17 17 17 17
15 15 15 15 15 15 15 15 15 15 15 15 15 15 15 15 15 15 15 15 15 15 15 15 15 16 16 16 16 16 16 16 16 16 17 17 17 17 17 17 17 17 17
15 15 15 15 15 15 15 15 15 15 15 15 15 15 14 14 14 15 14 15 15 15 15 15 15 15 15 16 16 16 16 16 16 16 16 16 16 16 16 16 17 17 17
15 15 15 15 15 15 15 15 15 15 15 15 15 14 14 14 14 14 14 14 14 14 14 14 15 15 15 15 15 15 15 16 16 16 16 16 16 16 16 16 16 16 16
15 15 15 15 15 15 15 15 15 15 15 15 15 15 15 14 14 14 14 14 14 14 14 14 14 14 14 15 15 15 15 15 16 16 16 16 16 16 16 16 16 16 16
15 15 15 15 15 15 15 15 15 14 15 15 15 15 16 15 14 14 14 14 14 14 14 14 14 14 14 14 14 15 15 15 15 15 15 15 16 16 16 16 16 16 16
15 15 15 15 15 15 15 15 15 15 14 15 15 15 15 15 15 14 14 14 14 14 14 14 14 14 14 14 14 14 15 15 15 15 15 15 15 15 16 16 16 16 16
15 15 15 15 15 15 15 15 15 15 14 15 15 15 15 15 15 15 14 13 13 13 13 13 14 14 14 14 14 14 14 15 15 15 15 15 15 15 15 15 15 15 15
15 15 15 15 15 15 15 15 15 15 15 15 15 15 14 15 15 14 14 14 13 13 13 13 13 13 13 13 14 14 14 14 14 15 15 15 15 15 15 15 15 15 15
15 15 15 15 15 15 15 15 14 14 14 15 15 15 15 14 14 14 14 14 13 13 13 13 13 13 13 13 13 13 14 14 14 14 14 14 14 14 14 15 15 15 15
15 15 15 15 15 15 15 14 14 14 14 14 14 14 14 14 14 14 14 14 14 14 13 12 12 13 13 13 13 13 13 13 14 14 14 14 14 14 14 14 14 14 14
15 15 15 15 15 15 15 14 14 14 14 14 14 14 14 14 14 14 14 14 14 14 14 12 12 12 12 13 13 12 13 13 13 13 13 13 14 14 14 14 14 14 14
15 15 15 15 15 15 15 15 14 14 14 15 14 14 14 14 14 14 14 14 14 14 13 12 12 12 12 12 13 12 12 13 13 13 13 13 13 13 13 13 13 13 13
15 15 15 15 15 15 15 15 14 14 14 14 14 14 14 14 14 14 14 14 13 13 13 13 12 12 12 12 12 12 12 12 12 13 13 13 13 13 13 13 13 13 13
15 15 15 15 15 15 15 14 14 14 14 14 14 14 14 14 14 14 14 13 13 13 13 13 12 12 12 12 12 12 12 12 12 12 12 12 12 12 13 12 12 12 12
15 15 15 15 15 15 15 14 14 14 14 14 14 13 13 13 13 13 13 13 13 13 12 12 12 12 12 12 12 12 12 12 12 12 12 12 12 12 12 12 12 12 12
16 15 15 15 15 15 15 14 14 14 14 14 13 13 13 13 13 13 13 13 13 12 12 12 12 12 11 12 11 11 11 11 11 11 11 11 11 11 11 12 11 11 11
16 15 15 15 15 15 15 15 14 14 14 14 13 13 13 13 13 13 13 12 12 12 12 12 11 11 11 11 11 11 11 11 11 11 11 11 11 11 11 11 11 11 11
16 15 15 15 15 15 15 15 14 14 14 13 13 13 13 13 13 13 13 13 12 12 11 11 11 11 11 11 11 11 11 10 10 10 10 10 10 10 10 10 11 11 11
16 16 15 15 15 15 15 15 14 14 13 13 13 13 13 13 13 12 12 12 12 12 12 11 11 11 11 11 10 10 10 10 10 10 10 10 10 10 10 10 10 10 10
16 16 15 15 15 15 15 14 14 14 13 13 13 13 12 12 12 12 12 12 12 12 11 11 11 11 11 10 10 10 10 10 10 10 10 9 10 10 10 10 10 10 10
16 15 15 15 15 15 15 14 14 13 13 13 13 13 12 12 12 12 12 11 11 11 11 11 11 11 11 11 10 10 10 9 9 9 9 9 9 9 9 9 9 9 9
16 15 15 15 15 14 14 14 14 13 13 13 13 13 12 12 12 12 11 11 11 11 11 11 11 11 10 10 10 10 9 9 9 9 9 8 8 8 8 9 9 8 8
Wind_Speed
4 4 5 4 5 5 5 5 5 7 7 8 8 8 8 9 8 8 10 15 15 13 12 12 11 11 11 11 10 10 9 8 7 6 5 4 4 4 3 3 3 2 2
5 4 5 5 5 5 5 5 6 6 6 7 8 8 8 9 9 9 9 11 15 15 14 13 13 13 12 12 12 11 10 10 8 8 7 6 5 5 4 3 3 2 2
5 4 4 4 5 5 5 6 7 6 6 7 8 8 8 9 9 10 10 9 10 14 16 16 15 15 14 14 13 13 11 10 10 9 8 7 7 6 5 4 3 3 2
6 5 4 4 4 5 5 5 5 5 7 7 7 7 7 7 9 9 9 10 10 10 14 17 17 16 16 15 15 14 13 11 10 10 9 8 8 7 6 5 4 3 3
6 5 5 4 5 4 4 4 5 6 7 7 7 7 7 7 8 9 10 11 11 10 10 13 15 17 17 17 16 15 14 13 12 11 10 9 8 8 7 6 5 4 3
6 6 5 5 5 4 4 5 6 6 6 6 8 8 8 7 7 8 9 9 10 11 11 11 10 12 16 17 17 16 15 14 12 11 10 10 9 9 8 7 7 6 5
6 6 4 5 4 5 5 5 6 7 6 6 6 7 7 9 8 7 8 8 9 11 11 11 10 9 10 14 17 17 16 14 13 11 11 10 10 10 9 8 7 7 7
6 5 5 4 4 4 4 5 5 4 4 2 2 3 3 5 6 7 7 7 8 8 9 11 11 11 11 10 14 18 18 16 14 12 12 11 11 11 11 10 9 8 8
7 6 6 5 4 3 4 3 3 3 3 3 3 1 1 2 3 5 7 7 7 7 8 10 11 12 12 11 12 17 18 18 15 13 12 11 11 11 11 11 11 10 9
6 6 6 6 5 4 4 3 3 2 2 2 2 3 3 2 1 3 4 6 7 8 8 8 9 11 12 12 14 18 19 19 17 15 14 13 12 12 11 11 11 11 10
6 6 6 5 5 5 5 4 3 2 1 1 1 2 3 2 1 2 3 3 5 6 7 8 8 10 11 12 13 17 18 18 18 17 16 15 14 13 13 12 11 11 11
4 5 5 5 5 5 5 4 4 4 3 3 2 2 2 2 2 2 3 3 3 4 6 6 7 9 10 11 13 16 18 18 17 17 17 17 16 15 15 14 13 13 13
3 4 4 5 5 5 5 5 5 5 5 4 3 3 3 3 2 2 3 2 2 2 3 5 7 8 8 9 10 13 16 17 17 16 16 17 17 16 16 16 16 16 15
3 4 4 4 5 5 4 4 4 5 4 4 5 5 3 4 3 2 2 1 2 2 3 4 5 7 8 8 9 9 13 16 15 15 15 15 16 16 16 16 16 16 16
3 3 4 4 4 4 4 4 4 4 4 4 4 4 3 3 3 2 1 1 1 1 2 3 3 5 6 7 8 8 10 14 14 14 14 14 14 14 14 15 16 16 16
4 3 3 4 4 4 4 3 4 4 4 5 3 4 4 3 3 2 1 1 2 1 1 2 2 3 4 5 7 7 8 10 13 14 13 13 13 13 13 13 14 14 14
4 4 3 3 3 3 4 3 3 3 3 4 4 4 4 4 3 2 2 2 2 2 2 2 2 2 3 4 5 5 6 6 10 12 12 12 12 12 12 12 12 12 13
4 4 4 3 3 3 3 3 3 3 3 3 3 3 3 3 3 2 2 2 2 1 1 2 2 2 2 3 4 4 4 5 6 9 10 11 11 11 11 11 11 11 11
5 5 4 3 3 2 2 2 2 2 2 2 2 2 2 2 2 2 2 2 2 2 1 1 1 1 1 2 2 3 3 3 4 4 6 7 9 9 9 9 9 10 10
6 5 4 4 3 3 2 2 2 2 2 2 2 2 1 2 1 1 1 2 1 1 1 1 1 1 0 1 1 2 2 2 2 3 4 3 4 4 5 6 7 8 9
6 5 5 4 3 3 2 2 2 2 2 2 2 2 2 3 5 3 1 1 1 1 1 1 0 0 0 1 2 2 2 2 2 2 3 3 3 3 4 4 4 6 7
6 6 5 5 4 3 3 1 2 3 2 3 2 2 3 3 3 2 2 2 2 1 1 1 1 1 1 1 2 3 3 3 3 2 4 3 3 3 3 4 5 5 6
7 6 6 5 5 4 6 4 3 2 2 2 2 2 2 2 2 1 3 4 1 1 3 3 2 1 2 2 3 3 3 4 4 4 4 4 3 3 3 3 2 4 5
8 7 6 6 5 4 6 5 5 4 3 2 3 3 3 3 2 1 1 2 1 1 2 3 2 2 3 3 3 4 5 5 5 3 4 5 5 5 5 5 2 4 6
8 7 7 7 6 6 7 6 6 4 4 4 3 3 3 3 3 2 3 3 2 2 1 2 3 3 3 4 5 4 4 5 5 4 3 5 5 6 6 6 4 5 8
8 7 7 7 7 6 8 8 8 5 5 4 4 4 3 3 3 4 5 4 4 4 3 3 4 6 6 6 7 7 5 6 6 5 3 4 6 6 6 5 6 7 8
Wind_Direction
48 56 64 59 64 71 85 83 83 85 82 78 76 76 75 72 69 68 70 61 56 57 56 55 55 52 52 51 47 43 39 40 36 37 43 45 39 33 40 42 43 44 42
49 52 67 62 62 65 76 88 87 88 86 82 77 76 70 70 69 68 69 72 63 57 54 53 53 51 51 49 46 42 40 42 38 37 42 44 42 42 45 48 43 37 28
48 54 60 66 66 75 87 86 87 88 91 90 83 76 71 66 67 65 62 59 64 62 55 53 52 49 47 46 44 42 41 42 41 40 42 45 45 45 48 48 40 33 23
50 53 57 65 72 82 90 94 93 96 93 87 82 76 76 73 67 65 63 61 54 56 59 54 51 49 46 44 41 40 38 38 40 41 42 45 44 44 50 51 49 41 41
48 58 54 57 78 88 92 96 92 94 95 92 87 77 71 67 62 61 61 58 56 55 58 61 56 50 44 41 38 37 37 37 40 41 41 44 45 46 51 53 56 52 54
46 57 65 65 77 94 95 97 102 99 98 97 90 79 70 68 62 56 58 59 56 54 52 51 53 55 49 41 36 35 35 35 39 41 41 43 44 44 48 50 49 46 44
49 56 58 65 67 87 95 109 113 114 109 109 105 95 82 68 61 56 55 58 58 55 53 50 46 44 48 45 37 32 31 32 37 41 45 46 47 46 45 46 44 41 36
52 56 59 72 78 91 97 105 118 121 118 117 120 125 116 95 65 55 57 55 55 56 52 48 46 44 41 40 39 32 29 30 37 44 47 48 48 48 45 44 43 40 36
57 55 56 64 73 95 100 100 116 125 122 93 43 14 72 88 99 65 54 55 52 49 49 46 44 41 42 40 36 33 29 30 36 44 48 48 49 49 45 43 43 43 42
60 57 60 61 67 73 91 99 89 104 128 114 80 39 42 85 120 107 75 60 54 48 43 42 41 41 41 42 42 35 32 32 36 42 46 47 48 48 48 46 45 47 46
64 63 59 62 66 71 73 73 71 71 88 74 77 91 90 96 85 107 100 82 65 50 45 40 40 39 41 42 40 38 35 35 38 39 41 43 45 47 47 44 45 45 47
77 70 65 68 70 71 72 71 76 77 72 71 71 81 97 100 100 100 111 102 77 58 53 44 40 39 41 45 43 40 38 38 41 41 42 43 44 44 45 43 44 43 47
90 80 76 76 74 73 71 72 79 78 81 79 73 69 66 65 70 86 108 99 90 85 65 55 43 37 38 42 41 38 44 41 41 43 44 45 45 45 45 43 43 43 47
95 94 86 80 80 78 80 75 76 73 74 76 73 73 74 71 75 80 84 103 103 89 67 55 49 34 33 37 34 34 46 43 40 43 45 46 46 46 46 45 44 45 46
114 109 104 98 90 85 79 80 76 78 74 70 73 76 72 75 75 62 64 358 350 53 63 58 43 35 34 40 22 39 46 44 40 43 46 47 46 46 48 47 46 45 45
133 135 125 117 105 97 93 83 82 72 83 77 70 76 72 75 72 65 53 20 359 27 67 56 50 44 39 46 39 40 49 53 48 46 46 47 47 47 47 47 46 45 43
155 150 140 127 114 108 106 101 93 93 91 92 91 87 83 72 74 71 56 58 57 70 98 83 76 67 53 44 40 32 36 42 51 50 47 47 48 48 47 46 45 44 42
162 159 149 141 124 117 113 113 112 107 96 93 93 92 89 86 75 68 65 74 72 68 106 106 108 72 48 43 33 23 32 40 46 58 51 47 45 43 45 46 45 43 40
170 169 164 157 145 137 130 129 130 121 112 108 106 99 93 99 98 91 81 75 75 76 90 150 110 73 39 36 18 24 35 32 33 60 62 53 46 42 42 44 43 41 39
180 178 173 167 161 155 153 150 145 137 129 122 115 106 95 96 93 105 101 93 91 98 105 127 129 130 59 5 328 353 9 20 12 24 30 31 52 55 54 46 40 35 32
183 180 175 172 167 167 162 172 169 165 157 146 141 132 97 64 35 28 24 101 128 165 163 167 156 242 26 330 336 329 334 330 354 359 341 349 356 5 19 39 40 26 17
182 179 182 179 175 169 123 128 249 184 177 170 162 152 138 136 111 99 50 25 344 267 243 232 237 270 319 331 328 311 315 311 321 350 322 324 326 332 346 356 16 6 355
181 183 188 187 187 160 146 170 241 226 201 196 190 179 166 149 177 155 150 177 179 330 301 283 273 287 292 310 296 300 309 312 312 324 314 306 308 307 314 328 326 317 322
184 189 193 193 192 172 160 177 207 221 213 207 207 206 197 191 185 209 214 211 212 213 249 259 274 290 299 297 289 294 298 293 288 287 296 297 303 302 301 294 270 279 290
190 194 197 198 198 189 171 181 204 213 221 220 218 222 224 222 137 220 235 231 235 242 226 251 304 303 318 298 283 273 277 282 288 289 290 291 300 301 291 278 269 255 265
193 194 197 205 207 207 174 185 212 216 225 225 225 225 218 239 178 211 234 240 247 252 254 236 238 241 249 244 241 257 272 279 287 289 290 288 294 302 294 277 284 288 283
Height
1561 1560 1559 1558 1558 1558 1558 1558 1558 1558 1558 1558 1558 1558 1558 1558 1558 1558 1557 1556 1555 1555 1554 1554 1553 1552 1551 1550 1549 1548 1548 1546 1546 1545 1545 1545 1544 1544 1544 1544 1544 1544 1544
1562 1561 1561 1560 1560 1559 1559 1559 1559 1559 1560 1560 1560 1560 1560 1560 1560 1559 1559 1558 1557 1556 1556 1555 1555 1554 1553 1552 1551 1550 1548 1547 1546 1545 1545 1544 1544 1543 1543 1543 1543 1543 1543
1564 1563 1563 1562 1561 1561 1561 1561 1561 1561 1561 1561 1561 1561 1561 1561 1561 1561 1560 1560 1559 1558 1557 1557 1556 1556 1555 1554 1552 1551 1550 1549 1547 1546 1545 1545 1544 1543 1542 1542 1542 1542 1541
1565 1564 1564 1563 1563 1563 1563 1563 1563 1563 1563 1563 1563 1563 1563 1563 1563 1563 1562 1562 1561 1560 1559 1559 1558 1557 1556 1555 1554 1552 1551 1550 1548 1547 1546 1545 1544 1543 1543 1542 1542 1541 1539
1566 1566 1565 1564 1564 1564 1564 1565 1564 1565 1565 1565 1565 1565 1565 1565 1565 1565 1564 1564 1563 1562 1561 1561 1560 1559 1558 1557 1555 1554 1552 1551 1549 1548 1547 1546 1545 1544 1543 1542 1542 1541 1540
1568 1567 1566 1566 1566 1566 1566 1566 1566 1566 1566 1566 1567 1567 1567 1567 1567 1566 1566 1565 1565 1564 1563 1562 1562 1561 1559 1558 1557 1555 1553 1551 1550 1548 1547 1546 1545 1545 1544 1543 1542 1541 1540
1569 1568 1568 1567 1567 1567 1567 1568 1567 1568 1568 1568 1569 1569 1569 1569 1569 1568 1568 1568 1567 1566 1565 1565 1564 1563 1561 1560 1558 1556 1554 1552 1551 1549 1548 1547 1546 1546 1545 1544 1543 1541 1539
1570 1570 1570 1569 1569 1568 1568 1569 1569 1569 1569 1570 1571 1571 1571 1572 1571 1571 1570 1569 1569 1568 1568 1567 1565 1564 1563 1561 1560 1558 1555 1553 1551 1550 1549 1548 1548 1547 1546 1545 1543 1541 1538
1571 1571 1571 1571 1570 1570 1570 1570 1570 1570 1571 1571 1572 1572 1572 1572 1573 1573 1572 1572 1571 1570 1569 1568 1567 1566 1564 1563 1561 1559 1556 1553 1551 1551 1550 1550 1549 1548 1547 1545 1543 1541 1539
1573 1573 1572 1572 1572 1572 1571 1572 1572 1572 1572 1572 1572 1572 1573 1573 1574 1574 1575 1573 1573 1572 1571 1570 1569 1567 1566 1564 1562 1560 1558 1555 1554 1553 1552 1551 1550 1549 1548 1546 1544 1542 1539
1575 1574 1574 1574 1573 1573 1573 1573 1572 1573 1573 1573 1574 1573 1573 1573 1574 1575 1575 1576 1575 1574 1572 1571 1570 1569 1567 1566 1564 1562 1560 1558 1556 1555 1554 1553 1551 1550 1549 1547 1545 1541 1537
1577 1576 1576 1575 1575 1575 1574 1574 1574 1574 1574 1574 1574 1574 1575 1575 1575 1576 1576 1576 1576 1575 1574 1573 1572 1570 1569 1567 1565 1564 1562 1560 1558 1557 1555 1554 1552 1551 1550 1548 1545 1542 1537
1578 1578 1577 1577 1577 1576 1576 1576 1575 1575 1575 1575 1575 1575 1575 1575 1576 1576 1576 1577 1576 1576 1575 1574 1573 1571 1570 1569 1567 1565 1564 1562 1560 1558 1557 1555 1554 1552 1551 1549 1547 1544 1540
1579 1579 1579 1578 1578 1577 1577 1577 1577 1577 1577 1577 1576 1576 1576 1576 1576 1577 1577 1578 1577 1578 1577 1576 1574 1573 1571 1570 1568 1567 1565 1563 1561 1559 1558 1556 1555 1553 1552 1550 1548 1546 1544
1580 1580 1580 1579 1579 1578 1578 1578 1578 1578 1578 1578 1577 1577 1577 1577 1577 1577 1577 1578 1579 1578 1578 1577 1575 1574 1572 1571 1569 1568 1566 1564 1562 1561 1559 1557 1556 1555 1553 1551 1549 1548 1547
1580 1580 1581 1581 1580 1580 1579 1579 1579 1579 1579 1578 1578 1578 1578 1578 1577 1577 1577 1577 1577 1578 1578 1577 1576 1574 1573 1572 1570 1569 1567 1565 1564 1562 1560 1558 1557 1555 1554 1552 1551 1549 1548
1580 1581 1581 1581 1581 1581 1580 1580 1580 1580 1580 1580 1579 1579 1579 1578 1578 1578 1577 1577 1577 1578 1577 1577 1576 1575 1573 1572 1571 1569 1568 1566 1565 1563 1561 1559 1558 1556 1554 1553 1551 1550 1548
1581 1581 1581 1582 1581 1581 1581 1581 1581 1580 1580 1580 1580 1580 1579 1579 1578 1578 1578 1578 1577 1577 1578 1577 1576 1575 1574 1572 1571 1569 1568 1567 1565 1563 1561 1560 1558 1556 1554 1553 1551 1550 1548
1580 1581 1581 1582 1582 1581 1581 1581 1581 1581 1581 1581 1580 1580 1580 1580 1579 1579 1578 1578 1578 1577 1577 1577 1576 1574 1574 1572 1571 1569 1568 1566 1565 1563 1561 1560 1558 1556 1554 1553 1551 1549 1548
1580 1581 1581 1581 1581 1581 1581 1581 1581 1581 1581 1581 1580 1580 1580 1580 1580 1579 1579 1578 1578 1577 1577 1577 1576 1575 1573 1572 1571 1570 1568 1567 1565 1563 1561 1560 1558 1556 1554 1552 1550 1549 1547
1579 1580 1580 1581 1581 1581 1581 1581 1581 1581 1581 1581 1580 1580 1580 1579 1579 1578 1578 1578 1577 1577 1577 1576 1576 1575 1574 1572 1571 1569 1568 1566 1564 1563 1561 1559 1557 1556 1554 1551 1549 1547 1545
1577 1578 1579 1579 1580 1580 1580 1580 1580 1580 1580 1580 1580 1579 1579 1578 1578 1577 1577 1576 1576 1576 1576 1576 1575 1574 1573 1572 1570 1568 1567 1566 1565 1563 1560 1558 1557 1554 1553 1550 1548 1546 1543
1576 1577 1577 1578 1579 1579 1579 1579 1579 1579 1579 1579 1579 1579 1578 1578 1577 1577 1576 1575 1575 1574 1574 1574 1574 1573 1572 1570 1569 1567 1566 1565 1563 1561 1559 1557 1555 1553 1551 1548 1546 1544 1541
1574 1575 1576 1577 1577 1577 1577 1578 1578 1578 1578 1578 1577 1577 1577 1577 1576 1575 1575 1574 1574 1573 1572 1572 1572 1571 1570 1568 1567 1566 1564 1562 1560 1559 1557 1555 1553 1551 1548 1546 1543 1541 1538
1571 1573 1574 1575 1575 1576 1576 1576 1576 1576 1576 1576 1576 1575 1575 1575 1574 1573 1573 1572 1572 1571 1570 1569 1568 1568 1566 1565 1564 1563 1561 1560 1559 1557 1555 1553 1550 1547 1545 1543 1540 1537 1535
1568 1570 1571 1572 1573 1573 1573 1574 1574 1574 1574 1574 1573 1573 1573 1572 1572 1571 1571 1570 1570 1569 1568 1567 1566 1565 1564 1563 1561 1560 1559 1558 1556 1555 1552 1550 1547 1545 1542 1539 1537 1534 1531